Weather observations for the past three days for
Amarillo, Amarillo International Airport
Imperial (Metric)
Date Time (cdt) Wind (mph) Vis. (mi.) Weather Sky Cond. Temperature (ºF) Relative Humidity Wind Chill (°F) Heat Index (°F) Pressure Precipitation (in)
Air Dwpt 6 hour altimeter (in) sea level (mb) 1 hr 3 hr 6 hr
Max. Min.
13 13:53 S 20 10.00 Fair CLR 95 63 35% 96 30.02 1010.3
13 12:53 S 14 G 23 10.00 Fair CLR 91.9 64.9 91.9 69.1 41% 94 30.04 1010.9
13 11:53 S 14 10.00 Fair CLR 89.1 66 47% 92 30.05 1011.3
13 10:53 SW 14 10.00 Fair CLR 84.9 64.9 51% 87 30.05 1011.5
13 09:53 S 17 10.00 Fair CLR 81 64.9 58% 83 30.06 1011.9
13 08:53 S 15 10.00 Fair CLR 77 64 64% 79 30.04 1011.1
13 07:53 S 15 10.00 Fair CLR 72 64 76% 30.02 1010.8
13 06:53 S 15 10.00 Fair CLR 69.1 63 73 69.1 81% 30.01 1010.5
13 05:53 S 14 10.00 Fair CLR 69.1 63 81% 30 1010.1
13 04:53 S 13 10.00 Fair CLR 70 63 79% 30 1010.1
13 03:53 S 12 10.00 Fair CLR 71.1 63 76% 30.01 1010.2
13 02:53 S 13 10.00 Fair CLR 72 64 76% 30 1009.9
13 01:53 S 14 10.00 Fair CLR 72 64 76% 30 1010.0
13 00:53 S 12 10.00 Fair CLR 73 64.9 89.1 73 76% 30.01 1010.4
12 23:53 S 14 10.00 Fair CLR 73.9 66 76% 30.01 1010.6
12 22:53 S 14 10.00 Fair CLR 75.9 66 72% 77 30.01 1010.8
12 21:53 S 12 10.00 Fair CLR 79 63 58% 81 29.99 1010.2
12 20:53 S 13 10.00 Fair CLR 84 63 49% 85 29.97 1009.4
12 19:53 S 16 10.00 Fair CLR 87.1 62.1 43% 88 29.97 1009.2
12 18:53 S 20 G 26 10.00 Fair CLR 89.1 62.1 90 82 41% 89 29.96 1008.9
12 17:53 S 14 10.00 Fair CLR 90 62.1 39% 90 29.98 1009.4
12 16:53 SW 17 10.00 Fair CLR 90 63 41% 91 30 1010.2
12 15:53 SW 17 10.00 Fair CLR 89.1 63 42% 90 30.02 1010.9
12 14:53 SW 9 G 22 10.00 Fair CLR 87.1 62.1 43% 88 30.04 1011.7
12 13:53 S 14 G 23 10.00 Fair CLR 84.9 63 48% 86 30.06 1012.6
12 12:53 SW 14 10.00 Fair CLR 82.9 64 82.9 66.9 53% 84 30.08 1013.4
12 11:53 SW 15 10.00 Fair CLR 79 64 60% 81 30.09 1013.9
12 10:53 SW 14 G 23 10.00 Overcast OVC012 73.9 63 69% 30.11 1014.6
12 09:53 SW 20 10.00 Overcast OVC008 70 62.1 76% 30.11 1014.7
12 08:53 S 17 9.00 Overcast OVC007 69.1 62.1 78% 30.1 1014.2
12 06:53 SW 15 6.00 Overcast with Haze OVC004 66.9 62.1 66.9 64.9 84% 30.08 1013.3
12 05:53 S 15 7.00 Overcast OVC004 66.9 62.1 84% 30.08 1013.3
12 04:53 S 13 9.00 Overcast OVC004 66 62.1 87% 30.08 1013.7
12 03:53 S 9 10.00 Fair CLR 66 61 84% 30.06 1012.8
12 02:53 S 9 10.00 Fair CLR 66 61 84% 30.06 1013.2
12 01:53 S 13 10.00 Fair CLR 66.9 61 81% 30.06 1013.0
12 00:53 SE 13 10.00 Fair CLR 68 63 82.9 68 84% 30.06 1013.0
11 23:53 SE 8 10.00 Fair CLR 69.1 62.1 78% 30.08 1013.9
11 22:53 S 9 10.00 Fair CLR 71.1 63 76% 30.07 1013.5
11 21:53 SE 13 10.00 Fair CLR 73 62.1 69% 30.04 1012.6
11 20:53 SE 13 10.00 Fair CLR 75.9 62.1 62% 78 30.03 1012.2
11 19:53 S 3 10.00 Fair CLR 81 59 47% 81 30.01 1011.5
11 18:53 SE 5 10.00 Partly Cloudy SCT048 SCT080 82 57.9 82.9 75 44% 82 30 1010.8
11 17:53 W 6 10.00 A Few Clouds FEW044 82 59 46% 82 30 1011.1
11 16:53 Vrbl 3 10.00 Fair CLR 81 59 47% 81 30.01 1011.3
11 15:53 S 9 10.00 A Few Clouds FEW039 81 60.1 49% 82 30.02 1011.9
11 14:53 SW 6 10.00 Mostly Cloudy BKN038 BKN055 78.1 60.1 54% 79 30.04 1012.7
11 13:53 Vrbl 3 10.00 Partly Cloudy FEW032 SCT043 78.1 60.1 54% 79 30.05 1012.7
11 12:53 SE 7 10.00 Mostly Cloudy SCT028 BKN034 77 60.1 77 62.1 56% 79 30.06 1013.5
11 11:53 Calm 10.00 Mostly Cloudy BKN023 73 59 62% 30.06 1013.4
11 10:53 E 5 10.00 Overcast OVC020 71.1 60.1 68% 30.06 1013.6
11 09:53 SE 5 10.00 A Few Clouds FEW018 70 60.1 71% 30.07 1013.7
11 08:53 SW 6 9.00 Fair CLR 66 60.1 81% 30.05 1013.3
11 07:53 S 7 9.00 Fair CLR 63 57.9 84% 30.03 1012.7
11 06:53 SW 3 9.00 Overcast OVC008 63 57.9 64 61 84% 30.02 1012.2
11 05:53 Calm 10.00 Mostly Cloudy BKN014 62.1 57.9 86% 30.02 1012.1
11 04:53 S 3 10.00 Fair CLR 62.1 55.9 80% 29.99 1011.3
11 03:53 Calm 10.00 Partly Cloudy SCT033 62.1 57 84% 30.01 1012.1
11 02:53 SE 3 10.00 Fair CLR 62.1 57 84% 30.01 1012.4
11 01:53 Calm 10.00 Fair CLR 63 57 81% 30.02 1012.8
11 00:53 W 5 10.00 Fair CLR 62.1 57 73 62.1 84% 30.03 1013.3
10 23:53 SW 10 10.00 Overcast FEW007 OVC013 66 61 84% 30.02 1012.2
10 22:53 SE 10 10.00 Fair CLR 66 62.1 87% 29.99 1011.4
10 21:53 SE 13 10.00 A Few Clouds FEW012 66.9 63 87% 29.99 1011.0
10 20:53 SE 12 10.00 Fair CLR 69.1 61 76% 29.99 1011.0
10 19:53 SE 12 10.00 A Few Clouds FEW019 71.1 62.1 73% 29.99 1011.0
10 18:53 SE 12 10.00 Overcast FEW018 OVC100 73 62.1 75 64.9 69% 29.97 1010.4 0.47
10 17:53 E 5 10.00 Mostly Cloudy FEW021 BKN044 73 62.1 69% 29.99 1011.1
10 16:53 Vrbl 3 10.00 Mostly Cloudy FEW017 BKN110 73.9 61 64% 30.01 1011.8
10 15:53 NW 5 10.00 Overcast BKN024 OVC065 70 62.1 76% 30.05 1012.8 0.02 0.47
10 14:53 NW 7 6.00 Light Rain SCT075 OVC090 68 63 84% 30.05 1013.1 0.24
Date Time (cdt) Wind (mph) Vis. (mi.) Weather Sky Cond. Air Dwpt Max. Min. Relative Humidity Wind Chill (°F) Heat Index (°F) altimeter (in) sea level (mb) 1 hr 3 hr 6 hr
6 hour
Temperature (ºF) Pressure Precipitation (in)